Time,TemperatureF,DewpointF,PressureIn,WindDirection,WindDirectionDegrees,WindSpeedMPH,WindSpeedGustMPH,Humidity,HourlyPrecipIn,Conditions,Clouds,dailyrainin,SoftwareType,DateUTC
2013-09-13 00:01:00,62.5,58.6,29.73,West,266,2.2,5.0,87,0.00,RA,,0.00,WeatherDisplay:10.37,2013-09-13 04:01:00,
2013-09-13 00:02:00,62.5,58.6,29.73,West,270,1.4,5.0,87,0.00,RA,,0.00,WeatherDisplay:10.37,2013-09-13 04:02:00,
2013-09-13 00:07:00,62.5,58.9,29.73,NW,304,1.1,5.0,88,0.00,RA,,0.00,WeatherDisplay:10.37,2013-09-13 04:07:00,
2013-09-13 00:12:00,62.5,58.9,29.73,West,279,1.3,6.0,88,0.00,,,0.00,WeatherDisplay:10.37,2013-09-13 04:12:00,
2013-09-13 00:17:00,62.4,58.8,29.72,WNW,290,0.6,6.0,88,0.00,,,0.00,WeatherDisplay:10.37,2013-09-13 04:17:00,
2013-09-13 00:22:00,62.4,58.8,29.72,West,272,1.2,6.0,88,0.00,,,0.00,WeatherDisplay:10.37,2013-09-13 04:22:00,
2013-09-13 00:27:00,62.3,58.7,29.72,SE,129,0.5,6.0,88,0.00,,,0.00,WeatherDisplay:10.37,2013-09-13 04:27:00,
2013-09-13 00:32:00,62.2,58.6,29.72,West,278,1.1,6.0,88,0.00,,,0.00,WeatherDisplay:10.37,2013-09-13 04:32:00,
2013-09-13 00:37:00,62.1,58.8,29.72,WSW,242,1.6,6.0,89,0.00,,,0.00,WeatherDisplay:10.37,2013-09-13 04:37:00,
2013-09-13 00:42:00,62.1,58.8,29.72,SW,233,0.0,6.0,89,0.00,,,0.00,WeatherDisplay:10.37,2013-09-13 04:42:00,
2013-09-13 00:47:00,62.0,59.0,29.72,SW,226,0.1,6.0,90,0.04,RA,,0.04,WeatherDisplay:10.37,2013-09-13 04:47:00,
2013-09-13 00:52:00,61.8,59.1,29.73,WSW,253,1.8,6.0,91,0.08,RA,,0.08,WeatherDisplay:10.37,2013-09-13 04:52:00,
2013-09-13 00:57:00,61.7,59.7,29.73,SW,214,3.4,6.0,93,0.00,RA,,0.10,WeatherDisplay:10.37,2013-09-13 04:57:00,
2013-09-13 01:02:00,61.8,59.5,29.73,SSW,194,6.1,11.5,92,0.31,RA,,0.31,WeatherDisplay:10.37,2013-09-13 05:02:00,
2013-09-13 01:07:00,61.7,59.4,29.73,SW,233,1.5,11.5,92,0.38,RA,,0.38,WeatherDisplay:10.37,2013-09-13 05:07:00,
2013-09-13 01:12:00,61.6,59.3,29.73,WNW,295,0.6,11.5,92,0.44,RA,,0.44,WeatherDisplay:10.37,2013-09-13 05:12:00,
2013-09-13 01:17:00,61.5,59.5,29.73,SW,236,0.0,11.5,93,0.54,RA,,0.54,WeatherDisplay:10.37,2013-09-13 05:17:00,
2013-09-13 01:22:00,61.4,59.7,29.73,SW,219,0.2,11.5,94,0.56,RA,,0.56,WeatherDisplay:10.37,2013-09-13 05:22:00,
2013-09-13 01:27:00,61.4,59.7,29.74,SW,226,0.6,11.5,94,0.56,RA,,0.56,WeatherDisplay:10.37,2013-09-13 05:27:00,
2013-09-13 01:32:00,61.3,59.6,29.74,SW,226,0.0,11.5,94,0.56,,,0.56,WeatherDisplay:10.37,2013-09-13 05:32:00,
2013-09-13 01:37:00,61.1,59.1,29.73,NNE,30,0.0,11.5,93,0.56,,,0.56,WeatherDisplay:10.37,2013-09-13 05:37:00,
2013-09-13 01:42:00,60.9,58.9,29.74,West,281,0.7,11.5,93,0.56,,,0.56,WeatherDisplay:10.37,2013-09-13 05:42:00,
2013-09-13 01:47:00,60.8,58.8,29.74,ENE,57,0.0,11.5,93,0.53,RA,,0.57,WeatherDisplay:10.37,2013-09-13 05:47:00,
2013-09-13 01:52:00,60.7,58.7,29.74,ENE,58,0.0,11.5,93,0.49,RA,,0.57,WeatherDisplay:10.37,2013-09-13 05:52:00,
2013-09-13 01:57:00,60.7,58.7,29.74,NE,44,0.3,11.5,93,0.47,,,0.57,WeatherDisplay:10.37,2013-09-13 05:57:00,
2013-09-13 02:02:00,60.6,58.6,29.75,NNW,348,0.1,11.5,93,0.26,,,0.57,WeatherDisplay:10.37,2013-09-13 06:02:00,
2013-09-13 02:07:00,60.5,58.5,29.75,WSW,242,0.2,11.5,93,0.19,,,0.57,WeatherDisplay:10.37,2013-09-13 06:07:00,
2013-09-13 02:12:00,60.5,58.5,29.75,NNE,29,0.6,11.5,93,0.13,,,0.57,WeatherDisplay:10.37,2013-09-13 06:12:00,
2013-09-13 02:17:00,60.4,58.4,29.75,South,177,0.0,11.5,93,0.03,,,0.57,WeatherDisplay:10.37,2013-09-13 06:17:00,
2013-09-13 02:22:00,60.4,58.4,29.75,WSW,239,0.0,11.5,93,0.01,,,0.57,WeatherDisplay:10.37,2013-09-13 06:22:00,
2013-09-13 02:27:00,60.3,58.3,29.75,SSE,149,0.1,11.5,93,0.01,,,0.57,WeatherDisplay:10.37,2013-09-13 06:27:00,
2013-09-13 02:32:00,60.3,58.3,29.75,NNW,342,1.9,11.5,93,0.01,,,0.57,WeatherDisplay:10.37,2013-09-13 06:32:00,
2013-09-13 02:37:00,60.2,57.9,29.75,NW,316,1.1,11.5,92,0.01,,,0.57,WeatherDisplay:10.37,2013-09-13 06:37:00,
2013-09-13 02:42:00,60.1,57.8,29.74,WSW,255,1.0,11.5,92,0.01,,,0.57,WeatherDisplay:10.37,2013-09-13 06:42:00,
2013-09-13 02:47:00,60.1,57.8,29.74,SW,224,0.0,11.5,92,0.00,,,0.57,WeatherDisplay:10.37,2013-09-13 06:47:00,
2013-09-13 02:52:00,60.0,57.7,29.74,West,274,1.0,11.5,92,0.00,,,0.57,WeatherDisplay:10.37,2013-09-13 06:52:00,
2013-09-13 02:57:00,60.0,57.7,29.74,South,190,0.0,11.5,92,0.00,,,0.57,WeatherDisplay:10.37,2013-09-13 06:57:00,
2013-09-13 03:02:00,59.8,57.5,29.74,WSW,250,1.0,11.5,92,0.00,,,0.57,WeatherDisplay:10.37,2013-09-13 07:02:00,
2013-09-13 03:07:00,59.7,57.4,29.74,SSW,208,0.5,11.5,92,0.00,,,0.57,WeatherDisplay:10.37,2013-09-13 07:07:00,
2013-09-13 03:12:00,59.6,57.3,29.74,WSW,249,0.4,11.5,92,0.00,,,0.57,WeatherDisplay:10.37,2013-09-13 07:12:00,
2013-09-13 03:17:00,59.5,57.2,29.74,ESE,115,0.1,11.5,92,0.00,,,0.57,WeatherDisplay:10.37,2013-09-13 07:17:00,
2013-09-13 03:22:00,59.5,57.2,29.74,ENE,62,0.1,11.5,92,0.00,,,0.57,WeatherDisplay:10.37,2013-09-13 07:22:00,
2013-09-13 03:27:00,59.4,57.1,29.74,North,349,0.0,11.5,92,0.00,,,0.57,WeatherDisplay:10.37,2013-09-13 07:27:00,
2013-09-13 03:32:00,59.4,57.1,29.75,ESE,105,0.6,11.5,92,0.00,,,0.57,WeatherDisplay:10.37,2013-09-13 07:32:00,
2013-09-13 03:37:00,59.4,57.1,29.75,SW,218,0.2,11.5,92,0.00,,,0.57,WeatherDisplay:10.37,2013-09-13 07:37:00,
2013-09-13 03:42:00,59.5,56.9,29.75,SSE,155,1.0,11.5,91,0.00,,,0.57,WeatherDisplay:10.37,2013-09-13 07:42:00,
2013-09-13 03:47:00,59.7,56.8,29.75,ENE,75,1.3,11.5,90,0.00,,,0.57,WeatherDisplay:10.37,2013-09-13 07:47:00,
2013-09-13 03:52:00,59.6,56.7,29.75,SW,235,0.3,11.5,90,0.00,,,0.57,WeatherDisplay:10.37,2013-09-13 07:52:00,
2013-09-13 03:57:00,59.7,56.8,29.74,NNW,336,2.0,11.5,90,0.00,,,0.57,WeatherDisplay:10.37,2013-09-13 07:57:00,
2013-09-13 04:02:00,59.6,56.7,29.74,NE,41,1.2,11.5,90,0.00,,,0.57,WeatherDisplay:10.37,2013-09-13 08:02:00,
2013-09-13 04:07:00,59.6,56.7,29.74,WNW,287,0.2,11.5,90,0.00,,,0.57,WeatherDisplay:10.37,2013-09-13 08:07:00,
2013-09-13 04:12:00,59.6,56.4,29.74,East,94,1.1,11.5,89,0.00,,,0.57,WeatherDisplay:10.37,2013-09-13 08:12:00,
2013-09-13 04:17:00,59.5,56.3,29.74,ESE,115,0.9,11.5,89,0.00,,,0.57,WeatherDisplay:10.37,2013-09-13 08:17:00,
2013-09-13 04:22:00,59.5,56.6,29.75,West,274,0.7,11.5,90,0.00,,,0.57,WeatherDisplay:10.37,2013-09-13 08:22:00,
2013-09-13 04:27:00,59.5,56.3,29.75,North,1,1.2,11.5,89,0.00,,,0.57,WeatherDisplay:10.37,2013-09-13 08:27:00,
2013-09-13 04:32:00,59.5,55.9,29.75,East,94,0.5,11.5,88,0.00,,,0.57,WeatherDisplay:10.37,2013-09-13 08:32:00,
2013-09-13 04:37:00,59.4,55.8,29.75,East,87,1.1,11.5,88,0.00,,,0.57,WeatherDisplay:10.37,2013-09-13 08:37:00,
2013-09-13 04:42:00,59.3,55.7,29.76,WSW,250,1.4,11.5,88,0.00,,,0.57,WeatherDisplay:10.37,2013-09-13 08:42:00,
2013-09-13 04:47:00,59.3,55.7,29.76,SW,215,1.6,11.5,88,0.00,,,0.57,WeatherDisplay:10.37,2013-09-13 08:47:00,
2013-09-13 04:52:00,59.3,55.7,29.76,WNW,293,0.6,11.5,88,0.00,,,0.57,WeatherDisplay:10.37,2013-09-13 08:52:00,
2013-09-13 04:57:00,59.3,56.1,29.76,NE,53,0.2,11.5,89,0.00,,,0.57,WeatherDisplay:10.37,2013-09-13 08:57:00,
2013-09-13 05:02:00,59.2,56.0,29.76,West,266,1.1,11.5,89,0.00,,,0.57,WeatherDisplay:10.37,2013-09-13 09:02:00,
2013-09-13 05:07:00,59.0,55.4,29.76,WSW,250,1.0,11.5,88,0.00,,,0.57,WeatherDisplay:10.37,2013-09-13 09:07:00,
2013-09-13 05:12:00,58.7,55.2,29.75,SE,142,0.5,11.5,88,0.00,,,0.57,WeatherDisplay:10.37,2013-09-13 09:12:00,
2013-09-13 05:17:00,58.5,55.0,29.76,SSW,193,0.4,11.5,88,0.00,,,0.57,WeatherDisplay:10.37,2013-09-13 09:17:00,
2013-09-13 05:22:00,58.3,54.8,29.76,ESE,119,0.4,11.5,88,0.00,,,0.57,WeatherDisplay:10.37,2013-09-13 09:22:00,
2013-09-13 05:27:00,58.3,54.4,29.76,South,190,0.9,11.5,87,0.00,,,0.57,WeatherDisplay:10.37,2013-09-13 09:27:00,
2013-09-13 05:32:00,58.3,54.8,29.76,SSW,193,1.1,11.5,88,0.00,,,0.57,WeatherDisplay:10.37,2013-09-13 09:32:00,
2013-09-13 05:37:00,58.1,54.2,29.76,West,278,2.4,11.5,87,0.00,,,0.57,WeatherDisplay:10.37,2013-09-13 09:37:00,
2013-09-13 05:42:00,58.0,54.2,29.76,SW,229,1.3,11.5,87,0.00,,,0.57,WeatherDisplay:10.37,2013-09-13 09:42:00,
2013-09-13 05:47:00,57.9,54.1,29.76,West,270,2.4,11.5,87,0.00,,,0.57,WeatherDisplay:10.37,2013-09-13 09:47:00,
2013-09-13 05:52:00,57.8,54.0,29.76,West,273,1.2,11.5,87,0.00,,,0.57,WeatherDisplay:10.37,2013-09-13 09:52:00,
2013-09-13 05:57:00,57.7,53.9,29.76,SE,141,1.0,11.5,87,0.00,,,0.57,WeatherDisplay:10.37,2013-09-13 09:57:00,
2013-09-13 06:02:00,57.6,53.8,29.77,SSE,155,0.4,11.5,87,0.00,,,0.57,WeatherDisplay:10.37,2013-09-13 10:02:00,
2013-09-13 06:07:00,57.5,53.7,29.77,West,264,1.8,11.5,87,0.00,,,0.57,WeatherDisplay:10.37,2013-09-13 10:07:00,
2013-09-13 06:12:00,57.5,53.7,29.77,East,90,2.2,11.5,87,0.00,,,0.57,WeatherDisplay:10.37,2013-09-13 10:12:00,
2013-09-13 06:17:00,57.4,53.6,29.77,NNW,333,1.9,11.5,87,0.00,,,0.57,WeatherDisplay:10.37,2013-09-13 10:17:00,
2013-09-13 06:22:00,57.2,53.4,29.77,SSW,203,1.5,11.5,87,0.00,,,0.57,WeatherDisplay:10.37,2013-09-13 10:22:00,
2013-09-13 06:27:00,57.0,53.2,29.77,WNW,290,0.8,11.5,87,0.00,,,0.57,WeatherDisplay:10.37,2013-09-13 10:27:00,
2013-09-13 06:32:00,56.8,53.3,29.78,West,266,2.1,11.5,88,0.00,,,0.57,WeatherDisplay:10.37,2013-09-13 10:32:00,
2013-09-13 06:37:00,56.7,53.2,29.78,West,274,0.4,11.5,88,0.00,,,0.57,WeatherDisplay:10.37,2013-09-13 10:37:00,
2013-09-13 06:42:00,56.6,53.1,29.78,NE,36,1.0,11.5,88,0.00,,,0.57,WeatherDisplay:10.37,2013-09-13 10:42:00,
2013-09-13 06:47:00,56.5,53.0,29.78,WSW,253,1.1,11.5,88,0.00,,,0.57,WeatherDisplay:10.37,2013-09-13 10:47:00,
2013-09-13 06:52:00,56.3,53.1,29.79,SSW,212,0.6,11.5,89,0.00,,,0.57,WeatherDisplay:10.37,2013-09-13 10:52:00,
2013-09-13 06:57:00,56.2,53.3,29.79,SSE,158,0.6,11.5,90,0.00,,,0.57,WeatherDisplay:10.37,2013-09-13 10:57:00,
2013-09-13 07:02:00,56.0,53.1,29.79,West,278,0.3,11.5,90,0.00,,,0.57,WeatherDisplay:10.37,2013-09-13 11:02:00,
2013-09-13 07:07:00,55.8,52.9,29.79,West,269,0.2,11.5,90,0.00,,,0.57,WeatherDisplay:10.37,2013-09-13 11:07:00,
2013-09-13 07:12:00,55.7,53.1,29.80,WNW,286,0.0,11.5,91,0.01,RA,,0.58,WeatherDisplay:10.37,2013-09-13 11:12:00,
2013-09-13 07:17:00,55.6,53.3,29.80,SSW,200,0.0,11.5,92,0.01,RA,,0.58,WeatherDisplay:10.37,2013-09-13 11:17:00,
2013-09-13 07:22:00,55.5,53.2,29.80,West,267,0.7,11.5,92,0.01,,,0.58,WeatherDisplay:10.37,2013-09-13 11:22:00,
2013-09-13 07:27:00,55.5,53.2,29.80,WSW,257,1.5,11.5,92,0.01,,,0.58,WeatherDisplay:10.37,2013-09-13 11:27:00,
2013-09-13 07:32:00,55.5,53.2,29.80,WSW,245,0.4,11.5,92,0.02,RA,,0.59,WeatherDisplay:10.37,2013-09-13 11:32:00,
2013-09-13 07:37:00,55.5,53.2,29.81,WSW,253,0.0,11.5,92,0.02,RA,,0.59,WeatherDisplay:10.37,2013-09-13 11:37:00,
2013-09-13 07:42:00,55.5,53.2,29.81,NE,56,1.5,11.5,92,0.02,,,0.59,WeatherDisplay:10.37,2013-09-13 11:42:00,
2013-09-13 07:47:00,55.5,53.2,29.81,West,266,1.0,11.5,92,0.02,,,0.59,WeatherDisplay:10.37,2013-09-13 11:47:00,
2013-09-13 07:52:00,55.5,53.2,29.81,SW,219,0.0,11.5,92,0.02,,,0.59,WeatherDisplay:10.37,2013-09-13 11:52:00,
2013-09-13 07:57:00,55.5,53.2,29.81,SSW,205,0.2,11.5,92,0.02,,,0.59,WeatherDisplay:10.37,2013-09-13 11:57:00,
2013-09-13 08:02:00,55.5,53.2,29.81,ENE,57,0.2,11.5,92,0.02,,,0.59,WeatherDisplay:10.37,2013-09-13 12:02:00,
2013-09-13 08:07:00,55.5,52.9,29.82,WNW,300,1.2,11.5,91,0.02,,,0.59,WeatherDisplay:10.37,2013-09-13 12:07:00,
2013-09-13 08:12:00,55.4,52.8,29.82,South,189,0.3,11.5,91,0.01,,,0.59,WeatherDisplay:10.37,2013-09-13 12:12:00,
2013-09-13 08:17:00,55.2,52.6,29.82,WNW,286,1.1,11.5,91,0.01,,,0.59,WeatherDisplay:10.37,2013-09-13 12:17:00,
2013-09-13 08:22:00,55.0,52.4,29.82,South,179,1.4,11.5,91,0.01,,,0.59,WeatherDisplay:10.37,2013-09-13 12:22:00,
2013-09-13 08:27:00,55.0,52.4,29.82,SW,219,0.3,11.5,91,0.01,,,0.59,WeatherDisplay:10.37,2013-09-13 12:27:00,
2013-09-13 08:32:00,55.0,52.7,29.82,NE,48,0.6,11.5,92,0.00,,,0.59,WeatherDisplay:10.37,2013-09-13 12:32:00,
2013-09-13 08:37:00,55.0,52.7,29.82,NW,311,0.6,11.5,92,0.00,,,0.59,WeatherDisplay:10.37,2013-09-13 12:37:00,
2013-09-13 08:42:00,55.0,52.4,29.82,East,91,1.4,11.5,91,0.00,,,0.59,WeatherDisplay:10.37,2013-09-13 12:42:00,
2013-09-13 08:47:00,55.0,52.4,29.82,SW,233,0.0,11.5,91,0.00,,,0.59,WeatherDisplay:10.37,2013-09-13 12:47:00,
2013-09-13 08:52:00,55.0,52.4,29.82,NNW,342,0.2,11.5,91,0.00,,,0.59,WeatherDisplay:10.37,2013-09-13 12:52:00,
2013-09-13 08:57:00,54.9,52.0,29.82,NNW,338,3.3,11.5,90,0.00,,,0.59,WeatherDisplay:10.37,2013-09-13 12:57:00,
2013-09-13 09:02:00,54.9,52.0,29.83,NNE,33,2.0,11.5,90,0.00,,,0.59,WeatherDisplay:10.37,2013-09-13 13:02:00,
2013-09-13 09:07:00,54.8,51.9,29.83,SE,129,0.7,11.5,90,0.00,,,0.59,WeatherDisplay:10.37,2013-09-13 13:07:00,
2013-09-13 09:12:00,54.8,51.9,29.83,NNE,15,1.1,11.5,90,0.00,,,0.59,WeatherDisplay:10.37,2013-09-13 13:12:00,
2013-09-13 09:17:00,54.9,51.7,29.84,NNE,33,2.1,11.5,89,0.00,,,0.59,WeatherDisplay:10.37,2013-09-13 13:17:00,
2013-09-13 09:22:00,54.8,51.6,29.84,East,87,1.7,11.5,89,0.00,,,0.59,WeatherDisplay:10.37,2013-09-13 13:22:00,
2013-09-13 09:27:00,55.0,51.8,29.84,NW,319,0.7,11.5,89,0.00,,,0.59,WeatherDisplay:10.37,2013-09-13 13:27:00,
2013-09-13 09:32:00,55.3,51.8,29.84,SSE,158,2.0,11.5,88,0.00,,,0.59,WeatherDisplay:10.37,2013-09-13 13:32:00,
2013-09-13 09:37:00,55.5,52.3,29.84,SW,219,1.8,11.5,89,0.00,,,0.59,WeatherDisplay:10.37,2013-09-13 13:37:00,
2013-09-13 09:42:00,55.6,51.5,29.84,SSW,203,0.9,11.5,86,0.00,,,0.59,WeatherDisplay:10.37,2013-09-13 13:42:00,
2013-09-13 09:47:00,55.5,51.4,29.84,SW,229,2.8,11.5,86,0.00,,,0.59,WeatherDisplay:10.37,2013-09-13 13:47:00,
2013-09-13 09:52:00,55.2,51.1,29.84,SSW,204,0.9,11.5,86,0.00,,,0.59,WeatherDisplay:10.37,2013-09-13 13:52:00,
2013-09-13 09:57:00,55.0,51.2,29.85,ENE,63,1.1,11.5,87,0.00,,,0.59,WeatherDisplay:10.37,2013-09-13 13:57:00,
2013-09-13 10:02:00,54.8,51.0,29.85,NNW,347,1.5,11.5,87,0.00,,,0.59,WeatherDisplay:10.37,2013-09-13 14:02:00,
2013-09-13 10:07:00,54.7,50.9,29.85,West,278,2.1,11.5,87,0.00,,,0.59,WeatherDisplay:10.37,2013-09-13 14:07:00,
2013-09-13 10:12:00,54.6,51.1,29.85,NE,53,0.8,11.5,88,0.00,,,0.59,WeatherDisplay:10.37,2013-09-13 14:12:00,
2013-09-13 10:17:00,54.5,51.3,29.86,WSW,239,1.1,11.5,89,0.00,,,0.59,WeatherDisplay:10.37,2013-09-13 14:17:00,
2013-09-13 10:22:00,54.4,51.2,29.86,South,190,1.0,11.5,89,0.00,,,0.59,WeatherDisplay:10.37,2013-09-13 14:22:00,
2013-09-13 10:27:00,54.2,50.7,29.86,West,277,0.8,11.5,88,0.00,,,0.59,WeatherDisplay:10.37,2013-09-13 14:27:00,
2013-09-13 10:32:00,54.3,50.8,29.86,SW,215,3.0,11.5,88,0.00,,,0.59,WeatherDisplay:10.37,2013-09-13 14:32:00,
2013-09-13 10:37:00,54.3,51.1,29.86,WNW,295,1.0,11.5,89,0.00,,,0.59,WeatherDisplay:10.37,2013-09-13 14:37:00,
2013-09-13 10:42:00,54.2,50.7,29.86,West,277,2.2,11.5,88,0.00,,,0.59,WeatherDisplay:10.37,2013-09-13 14:42:00,
2013-09-13 10:47:00,54.3,50.8,29.86,WNW,293,0.6,11.5,88,0.00,,,0.59,WeatherDisplay:10.37,2013-09-13 14:47:00,
2013-09-13 10:52:00,54.4,50.9,29.86,SSE,158,0.2,11.5,88,0.00,,,0.59,WeatherDisplay:10.37,2013-09-13 14:52:00,
2013-09-13 10:57:00,54.5,50.4,29.86,SSE,147,2.0,11.5,86,0.00,,,0.59,WeatherDisplay:10.37,2013-09-13 14:57:00,
2013-09-13 11:02:00,54.6,50.5,29.87,North,352,2.3,11.5,86,0.00,,,0.59,WeatherDisplay:10.37,2013-09-13 15:02:00,
2013-09-13 11:07:00,54.5,50.4,29.87,NNW,331,1.6,11.5,86,0.00,,,0.59,WeatherDisplay:10.37,2013-09-13 15:07:00,
2013-09-13 11:12:00,54.2,50.4,29.87,East,79,1.8,11.5,87,0.00,,,0.59,WeatherDisplay:10.37,2013-09-13 15:12:00,
2013-09-13 11:17:00,54.1,50.6,29.87,South,190,1.4,11.5,88,0.00,,,0.59,WeatherDisplay:10.37,2013-09-13 15:17:00,
2013-09-13 11:22:00,54.2,50.4,29.87,WNW,290,1.4,11.5,87,0.00,,,0.59,WeatherDisplay:10.37,2013-09-13 15:22:00,
2013-09-13 11:27:00,54.1,50.6,29.87,East,97,2.2,11.5,88,0.00,,,0.59,WeatherDisplay:10.37,2013-09-13 15:27:00,
2013-09-13 11:32:00,54.2,51.0,29.87,West,262,2.2,11.5,89,0.00,,,0.59,WeatherDisplay:10.37,2013-09-13 15:32:00,
2013-09-13 11:37:00,54.1,50.0,29.88,NNE,13,0.8,11.5,86,0.00,,,0.59,WeatherDisplay:10.37,2013-09-13 15:37:00,
2013-09-13 11:42:00,54.3,50.2,29.88,West,265,1.4,11.5,86,0.00,,,0.59,WeatherDisplay:10.37,2013-09-13 15:42:00,
2013-09-13 11:47:00,54.6,50.2,29.88,South,179,1.0,11.5,85,0.00,,,0.59,WeatherDisplay:10.37,2013-09-13 15:47:00,
2013-09-13 11:52:00,54.5,50.1,29.87,West,262,2.4,11.5,85,0.00,,,0.59,WeatherDisplay:10.37,2013-09-13 15:52:00,
2013-09-13 11:57:00,54.4,50.0,29.88,ESE,115,3.6,11.5,85,0.00,,,0.59,WeatherDisplay:10.37,2013-09-13 15:57:00,
2013-09-13 12:02:00,54.2,50.1,29.88,WNW,300,1.8,11.5,86,0.00,,,0.59,WeatherDisplay:10.37,2013-09-13 16:02:00,
2013-09-13 12:07:00,54.1,49.7,29.88,WSW,245,0.7,11.5,85,0.00,,,0.59,WeatherDisplay:10.37,2013-09-13 16:07:00,
2013-09-13 12:12:00,54.1,50.0,29.88,NNW,336,1.4,11.5,86,0.00,,,0.59,WeatherDisplay:10.37,2013-09-13 16:12:00,
2013-09-13 12:17:00,54.2,49.8,29.88,WSW,238,0.3,11.5,85,0.00,,,0.59,WeatherDisplay:10.37,2013-09-13 16:17:00,
2013-09-13 12:22:00,54.4,50.6,29.88,West,267,1.0,11.5,87,0.00,,,0.59,WeatherDisplay:10.37,2013-09-13 16:22:00,
2013-09-13 12:27:00,54.3,50.2,29.88,West,277,2.1,11.5,86,0.00,,,0.59,WeatherDisplay:10.37,2013-09-13 16:27:00,
2013-09-13 12:32:00,54.1,50.3,29.88,SSW,205,0.0,11.5,87,0.00,,,0.59,WeatherDisplay:10.37,2013-09-13 16:32:00,
2013-09-13 12:37:00,54.2,50.7,29.89,ESE,105,0.2,11.5,88,0.00,,,0.59,WeatherDisplay:10.37,2013-09-13 16:37:00,
2013-09-13 12:42:00,54.0,50.2,29.89,ESE,113,0.6,11.5,87,0.01,RA,,0.60,WeatherDisplay:10.37,2013-09-13 16:42:00,
2013-09-13 12:47:00,53.9,50.7,29.89,SW,219,0.7,11.5,89,0.01,RA,,0.60,WeatherDisplay:10.37,2013-09-13 16:47:00,
2013-09-13 12:52:00,54.0,50.5,29.89,WSW,250,1.9,11.5,88,0.01,,,0.60,WeatherDisplay:10.37,2013-09-13 16:52:00,
2013-09-13 12:57:00,54.0,50.2,29.88,NNW,328,1.4,11.5,87,0.01,,,0.60,WeatherDisplay:10.37,2013-09-13 16:57:00,
2013-09-13 13:02:00,54.1,50.6,29.89,SW,226,1.5,11.5,88,0.01,,,0.60,WeatherDisplay:10.37,2013-09-13 17:02:00,
2013-09-13 13:07:00,54.0,50.2,29.89,WSW,239,0.6,11.5,87,0.01,,,0.60,WeatherDisplay:10.37,2013-09-13 17:07:00,
2013-09-13 13:12:00,53.8,50.0,29.89,West,265,0.9,11.5,87,0.01,,,0.60,WeatherDisplay:10.37,2013-09-13 17:12:00,
2013-09-13 13:17:00,53.7,49.9,29.89,ESE,115,0.2,11.5,87,0.01,,,0.60,WeatherDisplay:10.37,2013-09-13 17:17:00,
2013-09-13 13:22:00,53.7,49.3,29.89,West,281,1.9,11.5,85,0.01,,,0.60,WeatherDisplay:10.37,2013-09-13 17:22:00,
2013-09-13 13:27:00,53.8,49.7,29.89,WSW,240,1.9,11.5,86,0.01,,,0.60,WeatherDisplay:10.37,2013-09-13 17:27:00,
2013-09-13 13:32:00,53.7,49.0,29.90,SSW,194,3.4,11.5,84,0.01,,,0.60,WeatherDisplay:10.37,2013-09-13 17:32:00,
2013-09-13 13:37:00,53.4,49.0,29.90,SSW,210,1.4,11.5,85,0.01,,,0.60,WeatherDisplay:10.37,2013-09-13 17:37:00,
2013-09-13 13:42:00,53.3,49.5,29.90,WNW,284,2.0,11.5,87,0.00,,,0.60,WeatherDisplay:10.37,2013-09-13 17:42:00,
2013-09-13 13:47:00,53.1,49.3,29.90,SW,219,0.6,11.5,87,0.00,,,0.60,WeatherDisplay:10.37,2013-09-13 17:47:00,
2013-09-13 13:52:00,53.1,49.9,29.90,WSW,243,0.2,11.5,89,0.00,,,0.60,WeatherDisplay:10.37,2013-09-13 17:52:00,
2013-09-13 13:57:00,53.1,49.9,29.90,WSW,248,0.3,11.5,89,0.00,,,0.60,WeatherDisplay:10.37,2013-09-13 17:57:00,
2013-09-13 14:02:00,53.0,49.8,29.89,WNW,302,0.9,11.5,89,0.00,,,0.60,WeatherDisplay:10.37,2013-09-13 18:02:00,
2013-09-13 14:07:00,53.2,50.0,29.89,WNW,283,1.3,11.5,89,0.00,,,0.61,WeatherDisplay:10.37,2013-09-13 18:07:00,
2013-09-13 14:12:00,53.4,50.2,29.89,South,177,1.5,11.5,89,0.01,RA,,0.61,WeatherDisplay:10.37,2013-09-13 18:12:00,
2013-09-13 14:17:00,53.6,50.4,29.89,West,274,1.7,11.5,89,0.01,RA,,0.61,WeatherDisplay:10.37,2013-09-13 18:17:00,
2013-09-13 14:22:00,53.7,49.9,29.89,SW,219,2.4,11.5,87,0.01,,,0.61,WeatherDisplay:10.37,2013-09-13 18:22:00,
2013-09-13 14:27:00,53.7,49.9,29.89,NNW,340,0.3,11.5,87,0.01,,,0.61,WeatherDisplay:10.37,2013-09-13 18:27:00,
2013-09-13 14:32:00,53.5,49.4,29.90,WNW,297,2.7,11.5,86,0.01,,,0.61,WeatherDisplay:10.37,2013-09-13 18:32:00,
2013-09-13 14:37:00,53.4,49.6,29.89,SSW,196,2.8,11.5,87,0.01,,,0.61,WeatherDisplay:10.37,2013-09-13 18:37:00,
2013-09-13 14:42:00,53.6,50.1,29.89,WSW,242,0.7,11.5,88,0.01,,,0.61,WeatherDisplay:10.37,2013-09-13 18:42:00,
2013-09-13 14:47:00,53.6,50.1,29.89,SE,124,0.0,11.5,88,0.01,,,0.61,WeatherDisplay:10.37,2013-09-13 18:47:00,
2013-09-13 14:52:00,53.6,50.4,29.89,SSW,200,0.4,11.5,89,0.01,,,0.61,WeatherDisplay:10.37,2013-09-13 18:52:00,
2013-09-13 14:57:00,53.5,50.0,29.89,SW,214,2.8,11.5,88,0.01,,,0.61,WeatherDisplay:10.37,2013-09-13 18:57:00,
2013-09-13 15:02:00,53.7,50.2,29.89,West,269,2.8,11.5,88,0.02,RA,,0.62,WeatherDisplay:10.37,2013-09-13 19:02:00,
2013-09-13 15:07:00,53.8,50.0,29.89,East,79,0.7,11.5,87,0.02,RA,,0.62,WeatherDisplay:10.37,2013-09-13 19:07:00,
2013-09-13 15:12:00,53.9,50.1,29.89,West,281,0.4,11.5,87,0.01,,,0.62,WeatherDisplay:10.37,2013-09-13 19:12:00,
2013-09-13 15:17:00,53.7,50.2,29.89,West,270,0.5,11.5,88,0.01,,,0.62,WeatherDisplay:10.37,2013-09-13 19:17:00,
2013-09-13 15:22:00,53.5,50.0,29.90,West,276,1.2,11.5,88,0.01,,,0.62,WeatherDisplay:10.37,2013-09-13 19:22:00,
2013-09-13 15:27:00,53.4,49.9,29.90,SW,228,2.6,11.5,88,0.01,,,0.62,WeatherDisplay:10.37,2013-09-13 19:27:00,
2013-09-13 15:32:00,53.3,49.8,29.90,West,269,0.2,11.5,88,0.01,,,0.62,WeatherDisplay:10.37,2013-09-13 19:32:00,
2013-09-13 15:37:00,53.2,49.4,29.90,SSW,208,1.9,11.5,87,0.01,,,0.62,WeatherDisplay:10.37,2013-09-13 19:37:00,
2013-09-13 15:42:00,53.0,49.2,29.90,SSW,212,0.0,11.5,87,0.01,,,0.62,WeatherDisplay:10.37,2013-09-13 19:42:00,
2013-09-13 15:47:00,53.0,49.5,29.90,WSW,242,0.8,11.5,88,0.01,,,0.62,WeatherDisplay:10.37,2013-09-13 19:47:00,
2013-09-13 15:52:00,53.0,49.5,29.90,SW,236,0.0,11.5,88,0.01,,,0.62,WeatherDisplay:10.37,2013-09-13 19:52:00,
2013-09-13 15:57:00,53.1,49.9,29.91,West,281,0.1,11.5,89,0.01,,,0.62,WeatherDisplay:10.37,2013-09-13 19:57:00,
2013-09-13 16:02:00,53.1,49.9,29.91,WSW,252,0.2,11.5,89,0.00,,,0.62,WeatherDisplay:10.37,2013-09-13 20:02:00,
2013-09-13 16:07:00,53.0,49.8,29.91,WNW,283,1.1,11.5,89,0.00,,,0.62,WeatherDisplay:10.37,2013-09-13 20:07:00,
2013-09-13 16:12:00,53.0,49.5,29.91,ENE,68,0.0,11.5,88,0.00,,,0.62,WeatherDisplay:10.37,2013-09-13 20:12:00,
2013-09-13 16:17:00,53.1,49.9,29.91,SSW,210,0.1,11.5,89,0.00,,,0.62,WeatherDisplay:10.37,2013-09-13 20:17:00,
2013-09-13 16:22:00,53.1,49.6,29.91,SW,214,1.4,11.5,88,0.00,,,0.62,WeatherDisplay:10.37,2013-09-13 20:22:00,
2013-09-13 16:27:00,53.1,49.3,29.91,West,267,0.0,11.5,87,0.00,,,0.62,WeatherDisplay:10.37,2013-09-13 20:27:00,
2013-09-13 16:32:00,53.1,49.9,29.91,East,86,0.0,11.5,89,0.00,,,0.62,WeatherDisplay:10.37,2013-09-13 20:32:00,
2013-09-13 16:37:00,53.0,49.5,29.91,ENE,78,0.1,11.5,88,0.00,,,0.62,WeatherDisplay:10.37,2013-09-13 20:37:00,
2013-09-13 16:42:00,52.9,49.4,29.91,WSW,250,0.1,11.5,88,0.00,,,0.62,WeatherDisplay:10.37,2013-09-13 20:42:00,
2013-09-13 16:47:00,52.8,49.6,29.92,SW,226,0.0,11.5,89,0.00,,,0.62,WeatherDisplay:10.37,2013-09-13 20:47:00,
2013-09-13 16:52:00,52.8,49.9,29.92,SW,226,0.0,11.5,90,0.00,,,0.62,WeatherDisplay:10.37,2013-09-13 20:52:00,
2013-09-13 16:57:00,52.8,49.9,29.92,SW,226,0.0,11.5,90,0.00,,,0.62,WeatherDisplay:10.37,2013-09-13 20:57:00,
2013-09-13 17:02:00,52.8,49.9,29.92,ENE,64,0.2,11.5,90,0.00,,,0.62,WeatherDisplay:10.37,2013-09-13 21:02:00,
2013-09-13 17:07:00,52.8,49.9,29.92,SSE,166,0.0,11.5,90,0.00,,,0.62,WeatherDisplay:10.37,2013-09-13 21:07:00,
2013-09-13 17:12:00,52.8,49.0,29.92,ENE,64,0.4,11.5,87,0.01,RA,,0.63,WeatherDisplay:10.37,2013-09-13 21:12:00,
2013-09-13 17:17:00,52.9,49.1,29.92,SW,226,0.0,11.5,87,0.01,RA,,0.63,WeatherDisplay:10.37,2013-09-13 21:17:00,
2013-09-13 17:22:00,52.9,49.1,29.93,NE,50,1.7,11.5,87,0.01,,,0.63,WeatherDisplay:10.37,2013-09-13 21:22:00,
2013-09-13 17:27:00,52.9,49.1,29.93,NE,36,0.4,11.5,87,0.01,,,0.63,WeatherDisplay:10.37,2013-09-13 21:27:00,
2013-09-13 17:32:00,52.9,49.4,29.93,East,101,0.2,11.5,88,0.01,,,0.63,WeatherDisplay:10.37,2013-09-13 21:32:00,
2013-09-13 17:37:00,52.8,49.3,29.93,WSW,243,0.0,11.5,88,0.01,,,0.63,WeatherDisplay:10.37,2013-09-13 21:37:00,
2013-09-13 17:42:00,52.8,49.3,29.93,West,264,0.0,11.5,88,0.01,,,0.63,WeatherDisplay:10.37,2013-09-13 21:42:00,
2013-09-13 17:47:00,52.8,49.6,29.93,West,269,0.0,11.5,89,0.01,,,0.63,WeatherDisplay:10.37,2013-09-13 21:47:00,
2013-09-13 17:52:00,52.7,49.2,29.93,North,359,0.4,11.5,88,0.01,,,0.63,WeatherDisplay:10.37,2013-09-13 21:52:00,
2013-09-13 17:57:00,52.6,49.1,29.93,NNW,333,0.0,11.5,88,0.01,,,0.63,WeatherDisplay:10.37,2013-09-13 21:57:00,
2013-09-13 18:02:00,52.8,49.6,29.93,West,260,0.0,11.5,89,0.01,,,0.63,WeatherDisplay:10.37,2013-09-13 22:02:00,
2013-09-13 18:07:00,52.8,49.6,29.93,West,260,0.0,11.5,89,0.01,,,0.63,WeatherDisplay:10.37,2013-09-13 22:07:00,
2013-09-13 18:12:00,52.6,49.4,29.93,West,260,0.0,11.5,89,0.00,,,0.63,WeatherDisplay:10.37,2013-09-13 22:12:00,
2013-09-13 18:17:00,52.5,49.4,29.93,West,260,0.0,11.5,89,0.00,,,0.63,WeatherDisplay:10.37,2013-09-13 22:17:00,
2013-09-13 18:22:00,52.6,49.8,29.94,ENE,64,0.0,11.5,90,0.00,,,0.63,WeatherDisplay:10.37,2013-09-13 22:22:00,
2013-09-13 18:27:00,52.6,49.4,29.94,ENE,64,0.0,11.5,89,0.00,,,0.63,WeatherDisplay:10.37,2013-09-13 22:27:00,
2013-09-13 18:32:00,52.6,49.4,29.94,ENE,68,0.0,11.5,89,0.00,,,0.63,WeatherDisplay:10.37,2013-09-13 22:32:00,
2013-09-13 18:37:00,52.5,49.4,29.93,ESE,119,0.0,11.5,89,0.00,,,0.63,WeatherDisplay:10.37,2013-09-13 22:37:00,
2013-09-13 18:42:00,52.6,49.1,29.94,ESE,119,0.0,11.5,88,0.00,,,0.63,WeatherDisplay:10.37,2013-09-13 22:42:00,
2013-09-13 18:47:00,52.7,49.5,29.94,ESE,118,0.0,11.5,89,0.00,,,0.63,WeatherDisplay:10.37,2013-09-13 22:47:00,
2013-09-13 18:52:00,52.7,49.2,29.94,ENE,60,0.0,11.5,88,0.00,,,0.63,WeatherDisplay:10.37,2013-09-13 22:52:00,
2013-09-13 18:57:00,52.7,49.2,29.94,SSW,197,0.2,11.5,88,0.00,,,0.63,WeatherDisplay:10.37,2013-09-13 22:57:00,
2013-09-13 19:02:00,52.9,49.7,29.94,SSE,166,0.0,11.5,89,0.00,,,0.63,WeatherDisplay:10.37,2013-09-13 23:02:00,
2013-09-13 19:07:00,53.0,50.1,29.95,SW,222,0.0,11.5,90,0.00,,,0.63,WeatherDisplay:10.37,2013-09-13 23:07:00,
2013-09-13 19:12:00,52.8,49.9,29.95,SW,231,0.5,11.5,90,0.00,,,0.63,WeatherDisplay:10.37,2013-09-13 23:12:00,
2013-09-13 19:17:00,52.6,50.0,29.95,SW,236,0.3,11.5,91,0.00,,,0.63,WeatherDisplay:10.37,2013-09-13 23:17:00,
2013-09-13 19:22:00,52.5,49.9,29.95,WSW,240,0.0,11.5,91,0.00,,,0.63,WeatherDisplay:10.37,2013-09-13 23:22:00,
2013-09-13 19:27:00,52.5,50.2,29.95,SW,229,1.0,11.5,92,0.00,,,0.63,WeatherDisplay:10.37,2013-09-13 23:27:00,
2013-09-13 19:32:00,52.2,49.9,29.95,SW,232,1.3,11.5,92,0.01,RA,,0.64,WeatherDisplay:10.37,2013-09-13 23:32:00,
2013-09-13 19:37:00,52.0,49.7,29.95,SW,233,0.0,11.5,92,0.01,RA,,0.64,WeatherDisplay:10.37,2013-09-13 23:37:00,
2013-09-13 19:42:00,52.0,50.0,29.96,WSW,249,0.0,11.5,93,0.01,,,0.64,WeatherDisplay:10.37,2013-09-13 23:42:00,
2013-09-13 19:47:00,51.9,49.9,29.96,West,267,2.0,11.5,93,0.01,,,0.64,WeatherDisplay:10.37,2013-09-13 23:47:00,
2013-09-13 19:52:00,51.7,49.7,29.96,SW,219,1.4,11.5,93,0.01,,,0.64,WeatherDisplay:10.37,2013-09-13 23:52:00,
2013-09-13 19:57:00,51.7,49.7,29.96,SW,222,1.3,11.5,93,0.01,,,0.64,WeatherDisplay:10.37,2013-09-13 23:57:00,
2013-09-13 20:02:00,51.7,50.0,29.97,WSW,253,0.0,11.5,94,0.01,,,0.64,WeatherDisplay:10.37,2013-09-14 00:02:00,
2013-09-13 20:07:00,51.8,50.1,29.97,West,274,0.0,11.5,94,0.01,,,0.64,WeatherDisplay:10.37,2013-09-14 00:07:00,
2013-09-13 20:12:00,51.9,50.2,29.97,WSW,246,0.0,11.5,94,0.01,,,0.64,WeatherDisplay:10.37,2013-09-14 00:12:00,
2013-09-13 20:17:00,51.9,50.2,29.97,West,260,0.0,11.5,94,0.01,,,0.64,WeatherDisplay:10.37,2013-09-14 00:17:00,
2013-09-13 20:22:00,51.9,50.2,29.98,WSW,246,0.1,11.5,94,0.02,RA,,0.65,WeatherDisplay:10.37,2013-09-14 00:22:00,
2013-09-13 20:27:00,51.9,50.2,29.97,WSW,243,1.1,11.5,94,0.02,RA,,0.65,WeatherDisplay:10.37,2013-09-14 00:27:00,
2013-09-13 20:32:00,51.9,50.2,29.98,West,266,0.8,11.5,94,0.02,RA,,0.66,WeatherDisplay:10.37,2013-09-14 00:32:00,
2013-09-13 20:37:00,51.7,50.0,29.98,WSW,249,1.0,11.5,94,0.03,RA,,0.67,WeatherDisplay:10.37,2013-09-14 00:37:00,
2013-09-13 20:42:00,51.5,49.8,29.98,NNW,338,0.3,11.5,94,0.04,RA,,0.68,WeatherDisplay:10.37,2013-09-14 00:42:00,
2013-09-13 20:47:00,51.4,49.7,29.98,WSW,247,0.0,11.5,94,0.04,RA,,0.68,WeatherDisplay:10.37,2013-09-14 00:47:00,
2013-09-13 20:52:00,51.4,49.7,29.98,SW,224,0.0,11.5,94,0.04,,,0.68,WeatherDisplay:10.37,2013-09-14 00:52:00,
2013-09-13 20:57:00,51.5,50.1,29.98,WSW,250,2.4,11.5,95,0.04,,,0.68,WeatherDisplay:10.37,2013-09-14 00:57:00,
2013-09-13 21:02:00,51.5,49.8,29.98,SW,233,0.2,11.5,94,0.04,,,0.68,WeatherDisplay:10.37,2013-09-14 01:02:00,
2013-09-13 21:07:00,51.6,50.2,29.99,WSW,256,0.2,11.5,95,0.04,,,0.68,WeatherDisplay:10.37,2013-09-14 01:07:00,
2013-09-13 21:12:00,51.7,50.3,29.99,WSW,253,0.0,11.5,95,0.04,,,0.68,WeatherDisplay:10.37,2013-09-14 01:12:00,
2013-09-13 21:17:00,51.6,50.2,29.99,SW,219,0.5,11.5,95,0.04,,,0.68,WeatherDisplay:10.37,2013-09-14 01:17:00,
2013-09-13 21:22:00,51.6,50.2,29.99,SW,225,0.0,11.5,95,0.03,,,0.68,WeatherDisplay:10.37,2013-09-14 01:22:00,
2013-09-13 21:27:00,51.6,50.2,29.99,SW,226,0.0,11.5,95,0.03,,,0.68,WeatherDisplay:10.37,2013-09-14 01:27:00,
2013-09-13 21:32:00,51.7,50.3,29.99,SW,226,0.8,11.5,95,0.02,,,0.68,WeatherDisplay:10.37,2013-09-14 01:32:00,
2013-09-13 21:37:00,51.9,50.5,29.99,SSE,155,0.0,11.5,95,0.02,RA,,0.69,WeatherDisplay:10.37,2013-09-14 01:37:00,
2013-09-13 21:42:00,51.8,50.4,29.99,WSW,242,0.0,11.5,95,0.01,RA,,0.69,WeatherDisplay:10.37,2013-09-14 01:42:00,
2013-09-13 21:47:00,51.6,50.2,29.99,North,9,0.0,11.5,95,0.02,RA,,0.70,WeatherDisplay:10.37,2013-09-14 01:47:00,
2013-09-13 21:52:00,51.5,50.1,29.99,West,274,0.0,11.5,95,0.03,RA,,0.71,WeatherDisplay:10.37,2013-09-14 01:52:00,
2013-09-13 21:57:00,51.4,50.0,29.99,WSW,256,0.0,11.5,95,0.04,RA,,0.72,WeatherDisplay:10.37,2013-09-14 01:57:00,
2013-09-13 22:02:00,51.3,49.6,29.99,North,354,0.0,11.5,94,0.05,RA,,0.73,WeatherDisplay:10.37,2013-09-14 02:02:00,
2013-09-13 22:07:00,51.1,49.4,29.99,East,96,0.3,11.5,94,0.06,RA,,0.74,WeatherDisplay:10.37,2013-09-14 02:07:00,
2013-09-13 22:12:00,51.0,49.0,29.99,North,354,0.2,11.5,93,0.06,RA,,0.74,WeatherDisplay:10.37,2013-09-14 02:12:00,
2013-09-13 22:17:00,51.0,48.8,29.99,NE,43,1.1,11.5,92,0.06,,,0.74,WeatherDisplay:10.37,2013-09-14 02:17:00,
2013-09-13 22:22:00,51.0,48.5,29.99,WSW,258,0.2,11.5,91,0.06,,,0.74,WeatherDisplay:10.37,2013-09-14 02:22:00,
2013-09-13 22:27:00,50.9,48.4,30.00,SE,132,0.7,11.5,91,0.06,,,0.74,WeatherDisplay:10.37,2013-09-14 02:27:00,
2013-09-13 22:32:00,50.9,48.1,30.00,WSW,248,0.2,11.5,90,0.06,,,0.74,WeatherDisplay:10.37,2013-09-14 02:32:00,
2013-09-13 22:37:00,50.9,48.1,30.00,East,97,0.4,11.5,90,0.05,,,0.74,WeatherDisplay:10.37,2013-09-14 02:37:00,
2013-09-13 22:42:00,50.9,47.8,30.00,ENE,68,0.7,11.5,89,0.05,,,0.74,WeatherDisplay:10.37,2013-09-14 02:42:00,
2013-09-13 22:47:00,50.9,47.8,30.00,SSE,163,0.2,11.5,89,0.04,,,0.74,WeatherDisplay:10.37,2013-09-14 02:47:00,
2013-09-13 22:52:00,51.0,47.3,30.00,WNW,283,2.9,11.5,87,0.03,,,0.74,WeatherDisplay:10.37,2013-09-14 02:52:00,
2013-09-13 22:57:00,51.0,47.6,30.00,ENE,73,1.2,11.5,88,0.02,,,0.74,WeatherDisplay:10.37,2013-09-14 02:57:00,
2013-09-13 23:02:00,51.0,47.3,30.00,NE,44,1.3,11.5,87,0.01,,,0.74,WeatherDisplay:10.37,2013-09-14 03:02:00,
2013-09-13 23:07:00,50.9,47.2,30.00,West,264,0.0,11.5,87,0.00,,,0.74,WeatherDisplay:10.37,2013-09-14 03:07:00,
2013-09-13 23:12:00,50.9,46.9,30.00,NW,322,0.8,11.5,86,0.00,,,0.74,WeatherDisplay:10.37,2013-09-14 03:12:00,
2013-09-13 23:17:00,50.9,46.9,30.00,East,94,1.4,11.5,86,0.00,,,0.74,WeatherDisplay:10.37,2013-09-14 03:17:00,
2013-09-13 23:22:00,51.1,46.7,30.00,WNW,284,0.5,11.5,85,0.00,,,0.74,WeatherDisplay:10.37,2013-09-14 03:22:00,
2013-09-13 23:27:00,51.0,47.3,30.00,NNE,26,0.0,11.5,87,0.00,,,0.74,WeatherDisplay:10.37,2013-09-14 03:27:00,
2013-09-13 23:32:00,51.0,47.3,30.00,East,84,0.9,11.5,87,0.00,,,0.74,WeatherDisplay:10.37,2013-09-14 03:32:00,
2013-09-13 23:37:00,51.1,46.7,30.00,NW,312,1.2,11.5,85,0.00,,,0.74,WeatherDisplay:10.37,2013-09-14 03:37:00,
2013-09-13 23:42:00,51.1,46.4,30.00,WSW,253,0.8,11.5,84,0.00,,,0.74,WeatherDisplay:10.37,2013-09-14 03:42:00,
2013-09-13 23:47:00,51.2,46.2,30.00,SW,225,0.7,11.5,83,0.00,,,0.74,WeatherDisplay:10.37,2013-09-14 03:47:00,
2013-09-13 23:52:00,51.2,46.5,30.00,WNW,286,0.0,2.3,84,0.00,RA,,0.74,WeatherDisplay:10.37,2013-09-14 03:52:00,
2013-09-13 23:57:00,51.2,46.5,30.00,SE,131,0.3,4.0,84,0.00,RA,,0.74,WeatherDisplay:10.37,2013-09-14 03:57:00,